Theta_e
336 337 336 337 336 336 336 335 335 333 333 334 334 335 333 335 343 347 347 344 336 333 334 333 332 332 331 333 334 332 331 331 332 332 331 331 331 331 331 331 330 330 331 331 331 331 330 330 330 330 330 330 330 330 330 330 330 329 328 327 324 321 319 317 316 316 317 317 318 317 317 317 317 317
335 337 337 337 336 336 335 335 335 335 335 335 334 334 333 332 336 339 344 346 337 332 335 333 332 333 332 333 334 333 333 333 332 332 332 332 331 331 331 331 331 331 331 331 331 331 331 331 330 330 330 330 330 331 331 330 330 329 328 327 326 325 323 321 319 318 318 319 320 320 319 318 317 317
333 336 337 336 336 336 335 334 335 335 334 334 333 333 333 332 332 332 336 342 339 334 334 332 331 332 333 333 333 333 333 332 332 331 332 332 332 332 332 331 331 331 331 331 331 332 331 331 331 331 331 331 331 331 331 331 331 330 330 329 328 328 327 325 325 324 324 324 324 325 323 321 319 318
333 334 336 337 337 336 335 334 335 336 334 334 334 334 333 333 334 333 335 338 338 334 332 331 330 331 331 331 331 331 331 331 330 331 331 332 332 332 332 332 332 331 331 332 331 332 331 331 332 332 332 332 332 332 331 331 331 331 330 330 330 329 329 328 328 328 327 327 327 327 326 324 322 321
335 334 335 337 337 337 336 336 336 335 334 334 335 335 335 334 335 335 335 336 335 334 333 332 332 331 331 331 331 331 332 331 332 332 332 333 333 333 333 332 332 332 331 331 331 331 330 330 331 331 332 332 332 332 332 331 331 331 330 330 330 329 329 329 328 328 328 327 327 326 325 325 324 323
336 335 336 337 337 337 337 337 336 335 334 334 335 335 335 335 335 335 335 336 335 335 333 333 333 333 332 332 332 332 333 333 333 333 333 332 332 332 331 331 331 331 331 331 330 330 329 329 330 330 330 331 331 331 331 331 331 331 330 330 330 329 328 328 328 327 327 326 326 325 325 325 325 324
336 335 335 336 336 337 337 336 335 335 334 334 335 335 335 335 335 334 334 335 336 335 334 334 334 333 333 333 333 333 333 334 334 333 332 330 330 329 329 329 329 329 329 330 329 329 329 329 330 330 330 331 331 330 330 330 330 330 330 330 330 329 329 328 328 328 327 327 327 326 326 325 325 325
337 336 335 335 336 336 337 336 334 335 335 334 334 335 335 335 335 334 334 335 335 335 334 334 334 334 335 335 335 335 335 335 334 333 332 330 330 328 328 328 328 328 328 328 328 328 328 328 329 329 329 329 329 329 329 329 329 330 330 330 330 330 329 329 328 328 328 328 328 328 327 326 326 326
337 337 337 336 335 335 335 335 335 335 335 335 335 335 335 335 335 334 334 334 335 334 334 334 334 335 335 335 335 335 334 334 334 333 332 332 331 330 329 328 328 328 328 328 329 329 328 328 328 328 328 328 328 329 329 329 329 329 329 328 328 329 329 329 328 328 328 328 328 328 328 328 327 326
337 337 337 337 336 335 335 336 335 336 335 335 335 335 335 335 335 334 334 333 333 334 334 334 335 336 335 334 333 332 332 333 333 333 333 332 332 331 329 328 328 328 328 329 329 329 329 328 328 327 327 327 327 328 329 329 328 327 326 326 326 327 328 328 327 327 328 328 328 328 328 328 327 327
337 336 337 337 337 336 336 336 335 335 334 335 335 335 335 335 335 335 334 333 334 334 334 335 335 335 334 334 333 331 331 332 333 333 333 333 331 330 329 328 328 328 328 329 329 328 328 327 325 324 324 324 326 326 327 326 326 325 325 326 327 328 328 328 328 328 327 327 327 327 327 327 328 328
338 337 336 337 336 336 336 335 334 334 334 335 335 335 335 334 335 335 334 334 334 335 335 335 335 335 334 333 332 331 332 333 333 333 332 332 330 329 328 328 328 328 328 328 327 326 325 324 323 322 322 322 323 323 324 324 324 325 326 327 327 327 327 326 325 325 324 324 324 325 326 327 328 327
339 338 337 337 336 335 335 335 334 334 334 335 335 335 335 335 335 335 335 335 335 335 336 335 335 334 333 332 331 331 332 332 332 331 331 330 329 329 329 328 327 327 326 326 326 324 323 323 322 321 320 319 318 319 319 320 321 322 322 323 323 323 323 322 322 322 322 323 324 324 325 325 325 325
339 339 338 338 337 335 335 335 335 335 335 335 335 335 334 335 335 335 335 335 335 335 335 334 333 332 331 331 331 331 331 331 330 330 330 329 329 329 329 328 327 326 325 326 325 323 321 321 320 319 318 318 318 319 319 319 320 320 320 321 321 321 321 321 321 322 323 324 324 324 325 324 323 323
338 339 339 339 338 337 336 335 335 335 335 335 334 333 334 334 334 334 334 333 334 334 334 333 332 331 330 331 331 331 331 331 330 329 329 329 329 329 328 328 327 325 325 325 324 321 318 318 319 319 319 320 320 320 320 320 320 320 321 321 321 321 320 319 320 322 322 322 321 321 321 320 318 319
338 338 339 339 339 338 337 336 336 335 335 334 333 333 333 333 332 332 332 331 332 332 332 332 332 331 331 332 332 331 331 331 331 330 329 329 329 329 328 327 327 324 322 322 322 320 318 318 319 320 320 320 321 321 321 321 321 321 322 322 322 321 321 320 319 319 319 318 317 317 317 316 315 315
337 338 338 339 338 337 336 336 335 335 334 333 331 331 332 332 331 331 331 330 331 332 333 333 332 332 332 332 332 332 332 332 331 330 330 330 329 329 327 326 324 321 319 319 319 319 319 319 320 320 321 321 321 321 320 319 319 319 318 318 319 318 318 317 316 315 315 315 315 315 314 312 312 312
337 338 338 338 338 337 336 335 335 335 331 327 325 328 332 332 331 331 331 332 333 333 333 333 332 331 331 332 332 332 332 331 331 330 330 330 328 326 324 322 320 319 319 319 320 320 320 319 320 321 321 320 319 317 317 316 316 316 315 315 314 313 312 312 312 311 312 312 312 312 312 313 314 315
337 338 338 338 338 337 336 335 335 332 326 322 324 329 331 331 330 331 332 333 333 332 332 332 332 331 331 331 331 330 331 331 331 330 329 327 324 322 321 320 319 319 320 319 320 320 320 320 321 320 318 316 315 315 316 316 315 314 313 312 311 312 313 314 315 315 315 315 316 316 317 317 318 318
338 338 339 338 338 337 336 335 333 330 325 324 328 331 331 331 331 331 332 332 332 332 331 331 331 330 329 329 328 328 328 328 327 326 324 323 321 321 320 320 319 320 320 320 320 320 320 320 319 316 314 313 313 313 313 313 312 311 312 312 314 316 317 318 318 319 319 319 318 318 317 317 317 317
339 339 339 338 337 337 335 333 330 327 326 327 330 331 330 331 332 330 330 331 331 331 331 330 329 328 327 327 326 325 325 324 323 322 322 321 321 320 319 319 319 320 320 321 321 319 317 316 315 313 312 312 312 311 310 311 312 313 314 315 316 317 318 319 319 320 319 319 318 317 317 317 316 316
339 339 338 337 336 334 331 330 328 326 326 328 329 330 330 331 330 329 329 331 331 331 329 328 327 327 326 325 324 323 322 321 320 320 321 321 321 321 320 319 320 320 319 319 319 317 314 313 313 312 312 312 311 311 312 312 314 315 315 315 316 317 318 319 319 320 319 319 318 318 318 318 318 317
339 338 336 335 333 330 329 329 327 324 325 327 328 329 330 330 330 329 330 332 331 330 329 328 328 327 325 324 322 320 319 318 319 320 320 319 318 318 317 317 318 320 319 316 315 314 313 313 312 312 312 312 312 312 312 313 314 314 315 316 317 318 319 319 319 319 319 319 319 319 319 319 319 319
338 337 335 334 332 330 329 328 325 324 325 328 328 328 330 330 331 331 331 331 330 329 328 328 326 324 323 321 319 318 317 319 320 319 317 316 315 314 313 312 315 317 317 313 312 313 313 313 312 312 312 313 313 312 311 313 314 315 316 316 317 318 319 319 319 319 319 319 319 319 320 320 319 319
337 335 334 333 331 330 329 326 325 326 328 328 328 328 329 331 331 332 331 331 329 327 325 323 321 320 319 318 317 317 318 319 318 317 316 316 314 313 311 311 312 314 314 312 311 312 313 313 312 311 311 312 312 312 312 312 314 316 316 317 318 318 318 319 319 319 319 319 319 320 320 320 319 319
337 335 333 332 330 329 328 326 326 327 327 327 327 328 330 331 331 332 331 329 326 323 320 319 318 317 316 317 318 319 319 318 317 316 316 315 313 311 310 311 312 313 312 310 309 311 312 312 311 311 311 311 311 311 312 313 314 316 316 317 318 318 319 319 319 319 320 320 319 319 319 319 319 318
336 334 332 331 329 328 327 326 327 327 326 327 328 329 330 330 331 331 328 324 321 319 318 317 316 315 316 318 320 318 317 316 315 315 315 313 311 310 310 310 310 310 309 308 308 308 310 310 309 310 311 311 311 311 312 313 315 316 317 317 318 318 318 319 319 319 319 319 319 319 319 319 318 317
334 333 330 327 326 326 326 328 328 329 329 329 330 330 330 329 328 326 322 319 318 317 317 316 316 316 318 320 319 317 315 315 314 314 313 311 309 308 309 308 308 308 308 308 308 308 308 309 309 310 310 310 311 311 312 313 315 316 317 318 318 318 318 319 319 319 318 318 318 318 318 318 317 317
331 329 326 325 325 327 329 331 331 331 331 330 328 327 326 325 323 320 318 318 317 317 317 317 317 317 318 319 319 318 315 314 314 313 312 310 308 308 307 307 307 307 307 308 308 308 308 309 309 309 310 310 311 312 313 314 316 317 317 317 318 318 318 318 318 318 318 318 318 317 317 317 316 316
328 327 327 328 329 331 332 333 332 331 329 325 322 322 321 320 318 317 317 317 316 316 317 317 317 318 318 318 319 317 315 314 313 312 310 308 307 307 307 307 307 307 307 308 308 308 308 308 308 308 309 309 311 312 313 315 316 316 316 317 318 318 318 318 318 318 317 317 317 316 316 316 315 315
329 330 331 332 333 333 333 332 331 328 325 321 320 320 319 318 317 317 317 317 317 317 317 316 317 318 318 319 319 317 314 312 311 309 308 308 307 307 307 307 307 307 307 308 307 307 307 307 307 308 309 309 310 311 312 314 315 315 316 317 318 318 318 318 317 317 317 316 316 315 315 315 314 314
331 332 333 333 333 333 333 332 329 326 321 319 319 319 318 318 318 317 317 317 317 317 317 318 319 319 319 320 319 316 312 309 308 308 308 308 307 307 307 307 307 307 307 307 307 307 307 307 308 308 308 309 310 311 313 314 315 316 317 318 318 318 318 317 317 316 316 315 315 315 314 314 313 313
331 331 332 332 331 332 331 330 327 323 320 319 319 319 319 319 318 318 318 318 318 318 318 319 319 318 318 316 314 311 308 308 308 307 307 307 307 307 307 307 307 307 307 307 307 307 307 308 308 309 310 311 312 314 315 316 316 317 317 317 317 317 317 317 316 315 315 314 314 314 313 312 312 312
328 329 329 330 330 330 330 328 326 323 321 320 320 320 320 320 320 320 319 319 319 320 319 319 317 314 312 310 309 308 308 308 307 307 307 307 307 307 307 307 307 307 307 307 307 307 307 307 308 309 310 311 311 312 314 316 317 316 317 317 317 317 316 316 315 314 313 313 312 312 311 311 311 311
327 327 328 329 329 329 329 328 327 324 322 320 320 321 321 320 320 320 320 321 321 320 317 314 311 309 308 308 308 308 307 307 307 307 307 307 307 306 306 306 306 306 306 306 307 307 307 307 308 309 310 311 312 312 313 315 316 317 317 317 317 316 315 314 313 312 311 311 310 310 311 310 310 311
327 327 327 328 328 328 328 327 326 324 323 322 323 322 322 322 322 322 321 322 320 317 313 311 309 308 308 307 307 306 306 306 307 307 307 306 306 306 306 306 306 305 306 306 307 307 307 307 307 308 310 312 313 313 313 315 316 317 317 317 316 315 314 313 312 311 310 309 309 309 310 310 310 310
327 327 327 327 328 328 327 326 325 325 325 325 324 324 323 322 322 323 322 320 317 313 310 308 308 307 307 307 306 305 306 307 307 307 306 305 305 305 305 305 305 305 306 306 306 306 307 307 307 308 310 312 314 313 313 315 316 316 316 316 315 314 313 312 311 310 309 309 309 309 309 309 309 308
327 327 327 328 329 328 326 326 325 323 322 320 320 320 319 319 320 321 319 315 312 310 309 308 308 308 307 306 305 305 306 307 307 306 305 305 304 304 304 305 305 305 306 306 306 306 306 307 307 307 309 312 314 314 314 315 316 316 315 314 314 313 312 311 310 309 308 308 308 308 308 308 307 307
328 328 328 329 327 325 323 322 321 319 318 317 317 317 316 316 317 317 315 311 310 309 308 307 306 306 306 305 305 306 306 306 305 304 304 304 304 304 304 305 305 305 306 306 306 306 306 306 306 306 307 309 310 312 313 315 316 316 314 313 313 312 311 310 309 308 308 308 308 307 307 306 306 305
328 329 329 327 324 322 320 319 318 317 317 317 317 316 315 315 315 314 312 311 310 309 307 305 304 305 305 306 306 306 306 305 304 304 303 303 304 304 304 305 305 305 306 306 305 306 306 306 306 306 306 306 307 310 314 316 316 315 313 312 312 311 310 308 308 308 308 308 307 307 306 305 305 304
328 328 328 325 322 320 319 318 318 318 317 317 316 315 314 314 313 312 312 310 309 308 307 306 306 307 307 306 306 306 305 304 303 303 303 304 304 304 304 304 305 305 305 305 305 305 305 305 305 305 305 306 309 313 315 316 315 314 313 312 311 309 308 307 307 307 307 307 306 306 305 304 304 304
329 328 327 325 322 320 319 318 318 317 317 316 316 315 314 313 312 312 310 308 307 306 306 307 307 307 306 306 305 305 304 304 303 303 304 304 304 304 304 305 305 305 305 305 305 305 305 305 305 305 306 309 312 314 315 315 314 313 313 312 310 308 307 306 306 306 306 306 305 305 304 304 304 304
328 328 327 324 321 319 318 317 317 317 316 316 315 314 313 313 311 310 308 306 305 306 306 306 306 307 306 305 305 304 304 303 303 303 304 304 304 304 305 305 305 305 305 304 304 305 305 304 305 307 309 312 314 315 315 314 313 313 313 312 310 308 306 306 305 305 305 305 304 303 303 302 303 303
326 325 324 321 319 319 318 317 317 317 316 315 315 314 313 312 311 309 307 305 304 304 304 304 305 306 306 305 304 304 304 303 303 303 304 304 304 304 305 305 305 305 304 304 304 305 305 305 307 310 312 313 314 314 313 313 312 312 312 311 308 307 306 306 305 305 304 304 303 302 301 300 300 301
323 322 322 320 320 319 318 317 317 316 316 315 314 313 312 311 310 309 306 304 303 303 304 304 305 305 305 304 304 304 303 303 303 303 304 304 304 304 305 305 305 304 304 304 304 304 304 305 308 312 312 312 312 312 311 311 311 312 311 309 307 306 306 306 305 305 304 304 303 302 301 300 299 299
Wind_Speed
21 20 18 17 16 16 14 13 14 15 14 14 14 13 14 11 6 3 2 4 6 7 7 6 4 3 3 4 10 15 16 15 14 15 17 18 18 17 17 17 17 17 17 17 17 17 18 19 19 20 20 20 21 21 22 23 23 22 22 21 22 22 23 23 23 23 23 23 23 22 21 20 19 18
22 21 20 18 18 18 17 16 16 15 14 15 15 13 13 12 10 7 5 4 6 8 8 7 5 4 2 2 5 10 12 12 13 14 16 18 19 19 18 17 17 18 18 19 19 19 19 19 20 20 20 20 20 21 21 22 22 22 21 21 21 22 22 23 24 25 24 24 24 24 24 23 22 21
22 23 22 20 20 20 19 17 16 15 15 15 15 14 13 12 11 11 8 3 5 8 7 7 7 6 6 6 6 7 9 11 12 13 14 15 17 19 20 20 20 20 21 21 22 21 21 21 20 20 20 20 20 20 21 21 22 22 22 22 22 22 22 23 24 25 25 25 25 25 25 24 24 23
23 25 25 22 21 21 20 18 16 15 16 16 15 14 13 11 9 10 10 6 6 9 8 8 8 8 8 9 9 10 10 11 12 12 13 14 15 17 19 21 21 21 22 22 23 23 22 22 22 22 21 21 20 20 21 21 22 23 24 24 24 24 24 24 25 26 27 28 28 27 25 24 23 24
26 27 27 24 22 20 19 18 17 17 16 16 16 14 13 12 10 10 11 9 9 11 11 10 10 8 8 10 10 11 12 12 12 12 14 16 17 18 19 20 21 22 22 23 23 23 23 23 23 22 22 22 21 21 21 22 23 24 24 25 25 25 26 26 26 26 26 27 27 27 26 25 23 23
29 29 28 26 23 20 18 18 18 17 16 16 17 16 14 13 12 12 13 12 11 12 13 12 11 10 10 11 10 11 13 14 13 14 15 16 18 18 18 19 20 21 22 23 23 22 22 22 23 23 23 22 22 22 23 23 24 24 25 25 25 25 26 26 26 25 25 25 25 25 26 26 25 24
30 30 30 28 25 22 19 19 18 18 17 16 17 17 15 14 13 12 14 15 14 14 15 14 13 12 11 11 11 11 12 15 16 16 16 16 17 17 18 19 19 20 21 22 22 21 22 22 23 23 23 23 23 23 24 24 25 26 26 26 26 26 26 26 27 27 27 27 27 26 26 27 27 26
31 30 30 29 26 24 23 22 20 19 18 17 16 16 15 14 13 13 14 16 16 16 15 14 14 13 12 12 12 11 13 15 16 16 17 17 17 17 18 19 20 20 20 21 21 21 20 21 22 22 23 23 24 25 26 26 26 26 26 27 27 27 27 27 27 27 28 29 30 29 29 28 28 28
31 31 30 29 26 24 25 23 21 19 17 16 15 15 15 15 14 13 14 16 17 18 17 16 15 14 13 14 13 12 13 15 16 16 17 17 18 18 17 18 19 19 19 20 20 20 19 19 20 21 23 24 26 27 27 26 26 26 26 27 27 27 28 28 28 28 29 29 30 31 32 31 29 29
32 31 30 28 26 25 24 22 20 19 17 16 16 16 16 16 15 16 16 16 17 19 19 18 17 16 15 15 15 14 13 14 16 17 17 17 18 17 17 17 17 17 17 17 17 17 18 19 20 22 24 25 26 27 26 26 26 26 26 26 27 28 28 29 29 29 29 29 29 31 32 31 30 29
32 31 30 28 26 24 23 22 21 19 18 18 18 18 17 16 16 17 18 19 18 18 19 19 18 17 16 15 16 16 14 14 16 17 18 18 17 15 16 17 17 16 16 16 17 18 19 21 22 22 23 23 24 24 24 25 25 25 25 25 26 27 27 28 29 29 30 30 29 30 31 30 30 29
31 31 30 29 26 25 23 23 22 20 19 18 18 17 16 16 17 19 20 20 19 18 18 18 17 17 17 17 17 17 15 14 16 15 16 17 17 15 15 17 18 18 18 18 19 20 21 22 22 23 24 24 24 25 25 26 26 26 27 27 27 28 28 29 30 30 30 29 28 28 28 28 28 28
30 30 30 29 28 27 26 24 22 20 19 18 18 17 15 15 17 18 18 18 17 16 16 17 17 16 18 20 19 17 15 15 15 14 13 15 17 16 16 18 19 20 19 19 19 20 21 22 23 24 25 24 23 23 23 24 25 26 27 27 28 28 28 28 27 26 26 26 26 26 27 27 27 27
29 29 28 28 28 27 25 24 21 20 20 19 18 16 15 15 16 15 15 16 16 16 16 18 17 15 18 22 19 17 17 16 15 14 14 15 17 16 16 17 20 21 18 16 18 22 24 24 23 23 23 21 19 19 19 19 20 20 20 21 21 21 21 21 22 23 24 25 25 25 25 25 25 24
29 27 26 26 25 24 24 22 20 20 19 18 17 16 15 16 17 16 16 17 18 18 18 19 19 18 20 22 19 17 18 17 16 16 16 16 16 14 13 13 17 20 18 15 19 24 24 22 22 22 21 20 18 19 20 19 18 19 19 19 18 18 19 20 21 23 23 23 22 22 22 23 23 23
30 27 25 24 23 24 24 22 20 20 19 17 17 16 15 16 18 18 20 21 22 22 21 22 22 21 21 20 19 19 19 18 17 17 15 15 14 15 13 13 15 20 21 19 20 22 23 22 23 23 22 21 20 20 20 20 19 20 21 20 20 19 20 20 20 21 22 22 24 24 25 26 27 27
30 28 26 25 25 25 25 23 22 20 19 18 17 17 17 17 18 19 22 23 23 23 22 22 23 22 20 19 20 19 18 18 17 15 15 15 15 15 15 15 19 22 23 22 21 22 23 23 22 23 23 20 18 17 17 18 19 20 20 19 19 20 21 22 24 25 27 28 29 31 31 31 30 30
30 29 28 27 27 27 27 26 23 20 19 19 19 19 18 19 19 20 22 22 22 21 20 21 23 22 20 19 19 17 17 18 18 17 17 16 15 15 16 19 22 21 20 21 19 17 20 24 23 24 21 17 15 15 16 19 21 22 22 22 23 25 26 27 28 29 30 30 30 30 30 29 29 29
32 31 29 29 30 29 28 26 22 20 19 19 19 19 19 19 20 21 22 22 21 20 20 20 21 19 17 17 18 17 18 18 17 15 15 15 15 17 18 20 22 20 19 19 13 10 17 22 20 19 17 15 17 20 22 25 26 26 27 27 26 26 25 25 24 24 25 25 24 24 24 25 27 28
33 31 30 30 31 29 27 23 20 18 18 17 18 19 20 20 21 21 20 20 20 20 19 18 17 15 13 14 14 15 14 13 11 11 13 15 17 17 17 17 19 19 19 20 15 11 14 15 14 16 19 20 22 24 26 27 26 25 25 24 23 22 22 22 23 23 22 21 21 21 22 24 26 29
32 31 31 32 30 27 24 21 18 17 16 17 18 19 19 20 21 20 19 19 19 16 13 11 10 8 8 8 7 8 9 10 11 13 15 18 18 15 12 12 15 18 19 19 14 11 11 13 15 20 23 21 20 21 23 22 21 21 23 23 24 25 25 25 25 24 23 21 21 22 23 25 27 29
31 30 30 29 26 23 22 20 17 15 15 17 18 18 19 20 21 20 20 19 16 11 9 8 7 7 7 8 8 10 11 11 12 14 15 14 14 12 10 10 12 15 17 15 11 11 15 17 18 21 21 18 17 18 20 21 24 25 27 28 28 28 28 28 27 26 25 24 24 24 25 27 29 31
31 29 26 23 22 22 20 17 15 13 15 17 18 17 18 19 21 22 20 17 14 11 11 10 11 13 13 14 14 14 12 10 10 10 8 7 7 8 9 11 10 9 10 12 13 15 18 18 18 19 16 11 12 18 23 26 28 30 30 30 30 29 29 29 29 29 27 27 27 28 28 29 30 33
27 25 23 22 22 21 19 16 13 13 16 18 17 16 17 20 22 21 18 15 13 13 14 14 16 18 17 17 15 12 9 7 6 5 4 6 9 10 12 13 11 9 11 14 15 15 16 17 19 21 18 10 10 18 27 29 30 30 30 30 30 30 31 31 31 31 30 30 31 31 31 31 32 34
26 24 24 24 23 20 18 16 14 15 17 17 16 16 18 19 20 18 16 14 14 15 16 17 18 18 16 14 11 7 5 5 4 5 7 11 14 14 13 13 12 14 15 15 15 15 16 17 20 23 21 17 16 20 25 29 31 31 29 28 30 31 32 32 33 33 33 32 33 32 33 33 34 34
27 26 25 24 22 19 16 14 14 16 16 16 17 17 17 17 17 16 15 15 15 15 15 16 16 15 13 9 5 4 5 6 8 10 12 14 15 16 14 13 13 16 17 16 17 18 18 19 21 22 20 19 20 22 22 24 29 31 29 29 30 32 33 33 33 34 34 33 33 34 34 35 35 36
25 24 23 21 18 15 13 13 14 15 16 17 17 16 15 15 15 15 15 14 13 13 12 13 14 12 8 5 4 5 7 9 11 12 13 14 16 15 14 13 14 16 17 18 18 19 20 22 24 24 22 22 20 19 18 21 26 29 30 31 32 32 33 33 32 33 34 33 33 34 35 36 36 38
23 22 20 17 14 12 11 12 13 15 15 15 13 12 12 13 13 13 13 12 10 10 10 10 10 9 7 7 8 8 9 10 10 11 14 16 16 13 13 14 15 16 17 17 18 19 22 24 25 25 25 24 20 17 17 21 26 28 29 31 31 32 33 33 32 33 32 32 33 34 34 35 37 38
20 19 16 13 11 10 10 11 13 14 12 11 10 10 11 11 12 12 11 10 9 9 9 8 9 9 8 9 10 11 11 10 11 13 16 16 14 12 14 16 16 15 16 17 18 19 21 22 23 23 24 25 23 22 22 24 26 28 29 28 29 31 33 32 30 31 31 31 33 34 34 35 37 37
17 14 12 11 10 10 10 11 12 11 10 10 11 11 11 11 11 11 11 11 10 10 9 9 11 11 11 12 13 11 11 12 13 15 16 15 13 13 16 18 18 16 16 16 18 18 18 19 20 22 24 25 25 25 26 25 25 28 30 29 27 28 30 30 29 30 31 32 34 35 36 36 36 37
15 13 11 10 10 10 10 11 11 10 11 12 12 12 12 11 11 12 13 12 12 12 11 12 13 13 14 14 13 11 12 13 14 13 12 13 14 15 17 19 20 20 19 17 16 16 17 19 21 22 24 24 24 25 26 25 25 28 31 30 27 25 28 30 31 30 30 32 35 37 37 36 37 38
14 13 12 11 11 11 12 12 13 13 14 15 14 13 13 14 14 14 14 14 14 14 14 14 15 15 14 13 11 11 12 12 11 11 11 13 14 16 17 18 20 22 22 20 18 18 19 20 23 24 24 23 23 24 25 25 26 28 29 29 28 27 29 31 30 30 30 31 35 39 39 38 39 39
15 13 12 12 12 13 14 15 15 15 16 17 16 16 16 16 16 16 16 17 16 15 15 15 13 10 8 8 9 9 10 9 8 9 11 13 14 16 18 18 19 20 21 21 22 22 21 21 22 24 24 22 21 21 22 24 27 27 27 28 28 28 29 30 29 29 30 29 32 37 40 40 40 39
14 14 13 14 14 15 16 17 17 17 17 18 19 19 18 18 18 18 18 18 17 15 13 11 8 6 6 6 6 6 6 7 7 8 10 13 15 17 17 17 18 19 20 22 24 24 23 23 23 23 23 22 22 23 21 20 23 26 26 26 26 26 28 29 30 30 30 29 29 33 37 39 38 36
16 16 15 16 16 16 17 18 18 18 19 19 20 20 20 20 19 19 18 17 14 11 9 8 6 6 6 6 5 5 5 6 7 8 11 13 14 15 15 16 17 18 20 22 24 24 24 24 25 23 22 22 22 24 24 20 19 22 25 25 24 25 27 29 31 32 33 31 30 29 31 35 36 35
18 18 17 17 17 17 18 18 18 18 19 20 20 21 21 21 21 20 17 13 9 9 9 8 6 7 7 7 6 5 5 6 8 10 11 12 13 14 15 15 17 20 22 22 23 23 23 24 24 21 16 13 10 12 20 25 23 21 23 26 26 27 28 30 32 32 32 31 30 29 29 31 35 37
19 19 19 18 18 18 18 17 17 18 19 19 18 18 18 17 17 15 11 7 8 10 9 7 7 8 8 7 6 5 5 6 8 10 10 11 13 14 15 17 19 22 23 22 22 23 22 23 23 19 12 7 4 5 14 26 29 25 22 25 27 29 30 31 31 31 31 31 30 30 30 31 35 39
21 20 19 19 18 17 15 14 13 12 9 7 6 6 6 7 8 8 9 10 11 10 9 8 9 10 9 7 6 6 5 6 7 8 9 11 13 15 16 19 21 22 22 21 21 22 22 22 23 21 14 7 4 5 10 18 26 28 25 23 26 29 30 30 30 31 32 32 32 32 32 33 34 38
22 20 19 18 16 14 12 11 11 10 10 9 7 7 7 8 10 12 13 12 10 8 7 9 10 10 9 7 5 5 5 6 6 8 10 12 14 16 17 19 20 20 20 20 21 22 23 22 23 24 21 14 13 14 15 17 23 26 25 22 22 26 28 29 30 31 32 33 34 34 34 33 33 34
22 20 18 17 14 12 13 15 14 12 10 8 7 8 9 12 13 14 14 11 7 5 6 6 6 6 5 3 2 3 4 5 6 9 11 13 14 16 17 18 19 19 18 19 21 22 24 25 26 26 26 24 22 22 21 20 21 24 25 23 22 23 25 27 29 31 31 33 35 34 33 32 32 32
22 20 18 16 13 12 14 15 13 11 9 9 9 9 10 11 12 12 10 7 5 5 5 4 3 2 2 1 2 3 3 6 8 9 11 13 14 15 16 17 18 18 17 18 21 23 24 26 27 27 26 24 22 19 15 12 14 20 25 26 26 26 26 26 26 27 29 32 33 31 29 29 30 29
23 22 21 17 14 13 15 15 13 11 11 11 11 10 10 10 10 9 6 4 4 5 5 4 4 3 2 2 2 3 4 7 9 10 11 13 14 15 16 17 17 18 17 18 21 24 25 26 28 27 23 20 18 14 10 8 11 18 23 26 28 29 29 27 26 25 25 28 29 28 28 27 23 18
22 22 22 19 16 16 16 14 13 12 12 12 11 10 10 10 9 7 4 3 4 6 5 4 5 5 5 4 3 3 5 7 9 10 11 12 13 15 17 17 17 18 19 20 22 25 26 27 28 25 19 17 15 13 11 13 16 18 20 23 27 30 31 30 30 28 26 26 26 27 29 28 21 16
22 22 21 19 17 17 17 14 13 13 13 13 11 9 9 9 8 6 4 3 4 5 4 4 5 7 6 5 4 5 6 7 8 10 11 12 13 15 17 17 18 19 20 21 23 25 26 27 25 20 16 15 15 14 14 15 17 18 19 21 24 29 31 31 32 32 31 30 29 30 32 32 27 24
21 20 18 17 17 18 17 15 14 14 13 12 11 10 9 8 6 5 5 4 4 4 4 5 5 7 7 4 4 5 6 7 8 9 11 12 13 15 16 17 18 19 20 22 24 24 26 26 22 16 14 16 16 14 14 15 16 17 19 20 23 27 29 29 30 32 32 33 34 33 34 35 32 28
Wind_Direction
209 210 212 215 216 212 208 206 203 199 200 202 202 205 202 194 180 168 218 241 222 212 222 237 253 270 284 253 240 242 246 255 265 269 270 273 275 276 278 281 280 278 280 285 290 296 299 298 296 295 293 292 291 290 289 290 290 291 291 289 286 284 282 281 282 284 288 290 291 291 289 289 289 290
215 216 218 220 217 214 216 216 210 204 203 204 207 213 215 212 204 188 185 234 231 214 225 244 246 236 237 251 243 243 249 259 269 275 276 277 280 282 283 286 287 286 285 287 288 290 293 294 294 293 293 293 293 293 292 290 290 289 288 286 286 286 285 284 283 284 286 287 289 290 289 287 285 285
219 219 222 225 223 222 222 215 211 210 207 208 210 211 214 218 221 209 187 193 240 225 231 250 245 245 262 275 275 271 269 273 280 284 286 286 288 287 285 287 289 289 289 289 289 289 291 291 290 289 289 289 291 293 293 293 291 289 286 284 283 283 283 284 285 286 286 287 288 289 289 287 284 282
221 223 225 228 228 227 224 216 212 211 209 210 209 210 213 213 221 221 203 193 230 234 242 261 262 268 281 285 288 289 287 288 289 288 291 295 295 292 289 288 290 291 292 292 292 292 292 291 289 287 288 289 289 290 290 290 289 288 287 286 284 283 281 281 282 283 285 286 288 288 288 286 284 282
223 226 227 229 231 230 228 224 217 211 210 213 212 210 214 215 220 228 219 213 230 244 251 259 266 275 283 287 293 297 298 300 298 288 285 289 292 294 292 289 288 288 290 292 294 295 295 293 291 289 290 290 290 290 288 287 287 288 289 289 289 289 287 285 284 282 282 282 284 285 286 286 285 284
223 227 228 231 231 230 230 226 220 216 217 216 213 212 215 220 223 226 228 228 231 245 255 259 265 274 279 282 288 295 298 302 301 294 289 291 293 296 296 293 290 288 289 290 291 293 294 294 294 293 292 292 291 291 291 290 290 290 290 290 290 290 290 289 288 286 284 282 280 280 282 284 285 285
221 225 229 231 230 229 229 228 225 225 225 221 217 218 220 223 226 229 235 236 234 244 257 261 264 269 271 272 278 286 292 296 298 298 299 300 299 299 300 299 297 294 292 291 290 292 295 296 297 296 295 295 295 295 294 293 293 291 290 290 289 289 288 287 286 286 286 285 283 281 280 281 282 283
220 224 228 230 230 230 232 233 231 227 227 226 224 224 225 226 232 238 240 240 241 245 253 257 262 265 266 269 275 280 286 291 293 295 299 299 298 299 301 301 300 297 294 291 288 289 293 296 298 297 297 298 298 297 296 294 293 291 289 288 288 287 286 284 283 284 285 286 286 285 283 281 280 281
221 225 229 231 231 233 235 235 230 224 225 228 228 230 233 234 238 242 238 237 240 243 248 256 262 266 269 275 279 281 287 291 290 289 291 292 292 295 298 298 297 297 295 292 288 286 289 293 295 295 296 296 296 295 294 293 291 289 288 288 288 287 287 286 286 285 285 284 285 286 286 284 282 281
226 227 230 232 232 234 237 234 227 225 227 232 235 238 241 242 243 241 236 234 236 240 248 258 264 266 270 277 282 284 288 291 289 286 285 285 285 288 292 295 295 295 293 290 289 289 290 292 293 293 292 291 292 292 292 292 290 288 287 286 286 286 286 286 287 287 286 284 284 285 286 286 284 282
229 229 230 231 231 232 234 232 228 230 233 235 238 242 245 247 246 245 242 238 236 239 248 257 263 268 273 276 280 286 290 286 281 279 278 279 280 283 288 292 293 293 291 290 293 296 298 299 299 299 296 292 291 292 291 290 289 287 285 283 282 283 283 284 285 285 285 284 283 283 283 283 284 284
228 228 230 231 232 232 233 234 234 236 236 235 237 242 248 250 252 253 248 240 237 239 245 254 261 269 275 277 280 286 287 277 272 275 275 276 281 285 285 289 294 297 298 299 301 303 305 305 304 302 298 294 292 290 289 288 286 284 282 281 281 282 283 284 284 284 284 283 282 282 281 281 282 283
228 228 229 231 233 234 237 238 239 238 236 235 238 243 248 254 257 255 246 238 237 240 244 251 258 264 270 275 279 282 280 274 274 278 273 271 279 284 283 288 297 302 305 306 305 306 307 304 301 300 299 299 299 296 295 292 288 286 284 283 282 283 284 285 285 287 287 287 285 283 283 285 285 284
227 227 228 231 233 235 236 236 235 235 234 234 239 245 251 255 254 247 241 241 243 241 241 248 254 257 264 273 277 278 281 280 276 273 268 268 275 278 280 290 301 305 306 304 300 303 306 303 300 303 306 308 309 308 307 304 299 296 295 294 292 290 290 292 294 295 295 294 292 289 288 289 289 286
223 223 224 226 227 228 229 231 231 232 232 234 239 246 253 256 254 249 249 250 249 244 244 251 255 254 260 271 278 279 281 280 275 274 273 269 268 269 274 286 296 303 305 297 293 300 308 309 305 308 312 312 312 314 315 314 309 304 303 301 298 296 296 298 300 301 301 300 299 297 293 292 292 290
220 218 216 215 217 220 225 231 232 230 232 237 240 246 254 259 260 260 260 258 255 253 251 253 256 256 260 272 279 280 281 281 281 283 279 270 267 270 274 272 282 301 309 302 296 301 311 314 308 308 314 316 316 317 317 317 315 310 306 302 298 296 296 296 297 297 298 298 297 297 295 294 293 292
217 213 209 208 214 222 229 233 231 229 233 238 241 249 256 260 261 262 262 261 261 261 258 256 260 266 271 275 280 286 287 286 287 285 278 276 275 274 276 277 288 304 311 305 299 300 309 315 310 308 317 321 319 316 313 314 315 312 309 306 302 300 297 296 295 293 291 289 288 289 290 290 289 287
215 211 208 210 217 222 225 227 226 228 234 239 245 253 258 259 260 261 261 262 262 264 265 265 271 280 285 285 289 296 295 290 287 281 278 281 281 281 286 290 294 302 307 304 298 293 307 320 316 312 319 323 317 312 306 306 309 308 307 305 302 300 298 296 293 290 287 285 284 284 285 285 285 285
214 209 209 215 218 217 217 220 222 228 236 242 248 254 256 258 261 263 266 268 270 274 278 278 281 289 294 293 295 300 299 296 291 285 282 284 288 291 292 292 294 299 305 308 300 283 306 320 315 309 315 315 308 307 303 301 304 304 302 302 300 299 298 296 295 293 291 290 288 288 288 288 289 289
210 207 210 215 215 213 214 216 221 230 237 244 249 254 259 263 266 269 271 274 278 282 284 283 285 291 296 296 297 299 300 299 298 292 285 287 292 294 293 294 298 302 308 313 310 294 302 314 306 301 309 309 305 306 303 301 301 300 299 301 302 304 305 306 305 303 301 298 295 295 296 296 296 295
205 206 211 212 210 211 215 219 224 231 237 244 251 257 264 268 270 273 276 281 284 281 275 276 282 291 299 299 296 296 296 298 299 294 289 293 298 296 291 291 296 304 311 316 315 301 298 308 306 305 309 308 303 304 305 306 308 308 309 311 313 314 314 314 314 311 305 300 297 297 300 301 301 299
201 205 207 207 208 214 219 221 223 229 237 244 251 258 264 269 271 276 283 289 287 271 257 264 279 289 296 297 298 303 302 299 299 296 295 303 304 296 292 295 302 312 317 318 317 305 303 309 311 311 311 308 303 306 311 315 316 316 317 318 318 318 317 317 316 312 305 299 296 296 298 300 301 300
196 201 203 206 214 219 218 216 220 229 237 244 252 260 265 267 270 276 285 287 277 265 265 277 288 293 297 300 305 307 303 298 300 305 314 331 330 321 320 319 318 316 311 313 315 306 303 309 314 314 313 305 304 311 313 315 317 317 318 319 319 319 319 316 315 312 306 301 298 298 298 297 297 297
191 198 203 207 213 216 214 217 227 235 239 245 254 261 262 263 267 276 283 278 271 276 285 291 295 296 299 302 304 305 306 305 307 316 333 342 339 336 329 319 307 282 285 310 319 306 298 306 311 312 309 294 290 306 310 312 315 316 317 318 317 319 318 315 313 312 309 305 302 301 298 295 294 293
187 193 198 203 208 212 215 225 234 237 242 249 256 258 259 262 267 275 276 270 271 284 294 297 298 299 300 301 300 307 323 327 321 315 316 320 324 327 323 312 294 280 290 316 325 307 296 301 305 307 306 296 289 297 304 308 310 314 316 314 313 315 315 312 310 309 309 307 305 302 298 295 293 292
187 192 198 204 209 213 221 232 239 242 249 256 258 261 264 265 265 265 265 268 279 290 296 298 299 301 302 300 297 313 327 324 315 308 308 313 319 322 321 314 301 295 304 321 323 308 297 298 302 303 299 296 296 298 299 300 306 311 313 310 310 311 311 309 307 306 306 305 303 301 298 295 293 292
191 196 202 207 211 218 228 237 241 248 257 260 261 265 265 259 255 256 261 271 283 290 295 301 304 306 305 300 304 319 321 315 308 305 308 315 319 319 316 315 312 311 315 319 319 313 306 303 307 305 298 293 295 296 295 293 299 305 307 306 307 308 308 308 305 304 305 303 301 300 297 294 293 293
199 202 207 211 216 223 231 238 247 256 260 258 256 253 245 242 245 251 260 270 276 280 288 297 301 302 300 302 308 313 311 304 300 304 311 316 318 316 314 315 317 318 319 318 318 319 316 312 313 314 308 299 290 286 289 290 293 298 301 302 305 306 308 308 305 303 304 302 300 298 294 293 294 295
206 207 209 212 218 225 231 240 249 253 249 240 233 229 230 236 244 250 253 254 254 262 273 279 283 287 292 302 306 302 295 291 296 305 310 312 316 319 319 321 323 324 325 324 324 326 325 321 320 320 315 307 295 285 285 287 290 295 297 298 300 303 306 307 305 304 303 300 297 295 293 292 293 292
201 202 206 210 215 221 227 237 242 239 229 220 221 225 228 232 237 240 238 236 241 254 266 274 281 286 291 300 303 296 284 287 299 307 310 313 320 325 325 324 325 328 331 332 334 334 331 326 323 318 312 309 303 294 289 287 287 292 296 297 297 301 305 306 305 303 301 299 297 296 294 293 291 290
192 193 193 197 205 212 219 228 229 220 215 217 221 225 225 225 227 231 233 238 247 259 268 276 282 288 292 297 297 288 281 290 303 310 314 315 319 325 326 323 324 329 333 338 342 339 330 325 325 320 312 306 303 302 300 294 289 291 296 299 298 298 302 305 304 303 302 301 299 297 295 294 293 292
182 183 183 186 196 207 213 215 211 210 217 223 225 227 229 229 230 234 241 247 251 258 268 278 284 291 295 294 286 279 285 299 311 317 317 317 319 325 326 321 322 327 332 339 343 338 331 330 330 328 324 316 309 310 309 302 295 293 295 300 302 301 302 304 304 305 307 305 301 298 298 297 297 295
177 180 185 190 198 205 209 209 210 216 227 230 229 232 235 236 238 242 247 250 253 260 271 279 284 289 289 280 274 278 292 309 319 321 321 321 322 325 324 322 325 329 331 334 336 335 335 336 333 332 332 330 323 318 309 299 297 299 299 301 304 303 304 307 308 308 310 307 301 301 301 299 298 297
189 188 190 196 203 208 208 209 216 226 234 236 238 240 241 243 247 250 251 255 260 266 268 267 264 261 260 263 269 280 299 315 323 324 324 324 324 327 327 327 331 334 331 329 331 333 335 336 336 335 336 335 330 325 315 299 295 301 304 304 304 304 306 311 313 313 312 309 303 300 299 298 299 299
197 195 195 198 205 209 212 218 228 238 242 244 247 250 250 252 254 256 259 264 263 253 239 230 230 241 251 255 261 276 300 317 324 324 324 325 329 334 334 331 330 333 330 327 330 334 335 334 334 333 332 332 329 327 326 320 307 305 309 310 310 311 312 316 318 317 314 312 308 302 299 300 302 303
198 199 200 203 207 212 218 227 237 246 252 255 259 260 260 260 259 259 264 265 244 215 211 218 232 245 247 247 256 276 294 308 318 322 325 332 337 339 338 335 331 331 330 329 331 334 333 332 332 328 322 325 326 320 322 325 322 315 314 315 316 318 318 318 319 317 314 314 312 306 302 301 303 305
201 202 204 209 213 217 224 235 248 255 260 263 264 262 261 262 261 257 250 226 201 199 207 223 239 244 243 249 263 276 287 305 320 326 333 342 345 341 336 333 332 331 330 331 333 335 333 331 329 324 314 313 320 303 311 318 320 322 321 319 318 320 321 319 318 316 315 315 313 310 306 302 301 305
203 203 206 211 215 221 231 241 246 245 238 231 227 225 227 236 236 216 192 183 188 198 212 232 243 244 245 257 272 279 292 312 325 335 344 345 342 338 333 330 330 330 330 330 334 337 335 331 326 323 316 303 293 292 302 310 314 320 328 327 320 319 322 321 318 317 317 316 315 313 308 303 301 305
205 205 207 209 211 216 218 207 192 175 164 161 161 163 165 172 178 178 178 182 190 206 230 246 250 248 250 261 279 295 313 326 334 342 342 336 332 333 332 330 328 328 327 328 332 336 336 332 328 324 319 308 299 299 298 295 300 311 325 332 325 321 323 323 320 317 316 316 316 314 312 310 308 309
205 205 206 204 202 197 186 177 173 172 174 174 171 165 163 166 171 175 179 185 202 230 243 242 241 241 243 265 306 313 321 335 341 339 334 331 331 334 334 331 329 328 325 323 327 332 332 331 330 328 322 317 315 313 305 296 298 309 323 333 333 329 328 327 323 318 314 316 319 317 317 319 318 316
203 202 199 201 202 193 182 179 181 185 184 178 170 162 160 164 170 175 181 196 220 226 213 208 220 228 215 266 313 309 320 336 337 333 332 334 336 336 335 333 331 331 326 321 323 327 329 331 335 335 332 329 329 323 309 299 305 315 323 331 336 337 336 335 331 322 316 319 322 320 320 322 320 317
203 201 201 206 209 195 185 185 187 186 180 174 170 164 163 167 173 177 183 201 214 209 211 227 246 244 221 230 270 294 321 331 331 332 335 338 337 336 335 334 332 330 326 322 323 326 330 336 341 343 341 341 337 323 300 295 307 314 320 327 334 338 341 342 340 334 328 328 329 328 327 326 322 319
203 204 207 212 210 197 190 190 189 188 182 176 172 171 172 174 177 178 183 204 209 210 224 246 243 232 223 221 243 287 313 323 328 334 338 339 338 336 335 334 334 331 328 326 328 331 336 343 346 347 346 346 340 322 303 305 313 316 320 325 331 337 342 344 344 342 339 339 342 341 337 333 328 321
204 207 211 212 204 196 195 195 192 190 186 180 178 181 180 178 179 180 184 195 201 207 234 260 243 222 211 211 241 286 306 316 324 331 336 339 339 338 337 336 334 332 330 330 331 335 341 346 349 351 351 347 339 327 318 318 321 323 325 328 332 337 341 343 343 343 342 345 349 348 346 344 340 332
205 206 208 207 201 197 198 197 193 189 186 184 184 187 185 185 190 195 191 186 193 217 254 261 225 198 195 215 258 287 302 311 315 321 329 334 335 336 337 336 332 331 331 332 332 334 339 344 348 351 351 345 339 334 332 331 329 326 329 335 339 340 342 343 342 341 340 344 348 350 349 350 351 350